RH
19 20 22 20 18 16 14 15 17 16 19 22 20 18 14 16 23 26 24 24 23 23 21 21 20 21 21 30 34 37 38 44 47 44 40 37 37 39 42 48 60 63 66 64
20 21 16 15 18 18 14 15 14 16 20 21 17 16 12 10 16 18 20 19 19 20 20 20 21 23 25 28 32 34 34 41 44 39 35 33 34 38 44 54 65 68 68 65
19 23 21 21 18 16 14 13 13 15 18 18 16 14 10 8 9 13 14 14 15 17 19 19 20 24 27 26 31 32 32 38 40 34 35 37 38 43 46 56 56 65 62 58
17 18 25 19 17 15 17 12 14 14 17 15 14 12 8 7 8 11 14 14 14 15 17 17 19 24 28 27 30 30 31 33 38 36 32 34 33 32 37 48 55 61 61 54
18 18 27 20 19 20 18 14 14 14 14 14 11 13 7 8 9 10 12 12 13 14 15 17 18 21 26 28 30 32 31 32 34 37 36 34 35 32 48 52 63 61 60 54
18 13 21 20 17 18 14 14 15 15 16 21 14 13 7 8 10 9 10 11 12 13 15 16 17 20 22 28 32 35 33 32 34 38 43 36 36 37 47 54 57 53 50 47
19 16 14 13 19 14 15 18 30 27 25 28 14 12 9 12 13 14 15 15 15 14 16 18 17 18 21 26 34 37 36 32 34 40 42 42 43 46 51 56 55 50 46 42
23 25 16 13 16 18 17 18 34 40 28 18 14 12 17 12 14 13 14 16 17 18 18 19 18 18 19 23 32 38 35 32 34 42 43 46 48 53 54 58 47 46 40 39
21 19 14 14 14 14 17 23 18 26 29 27 17 14 18 10 12 13 15 17 18 18 19 19 19 20 20 21 28 37 35 34 33 41 45 49 55 54 51 52 54 45 44 37
17 25 16 16 16 18 22 20 28 30 77 34 21 17 13 13 13 12 15 18 19 18 18 18 18 20 21 22 24 34 38 33 34 43 49 56 59 57 55 56 50 45 44 43
16 23 22 17 19 19 24 22 23 32 30 34 29 18 13 12 13 15 16 19 23 26 27 26 24 24 23 23 24 31 38 36 38 50 59 58 58 56 54 48 46 44 46 46
15 21 26 19 18 17 19 21 22 51 35 31 31 24 15 15 16 17 18 25 29 32 35 35 36 35 32 31 29 33 41 39 52 59 59 60 58 53 49 45 44 46 48 47
18 23 32 20 21 21 20 21 42 52 32 33 37 24 17 18 18 17 23 29 33 34 35 39 41 40 39 38 38 42 46 52 56 55 58 57 52 46 44 44 45 47 47 46
25 16 24 30 22 31 48 26 66 50 41 31 20 16 19 18 17 18 24 31 35 35 37 40 43 45 46 47 48 50 52 50 48 47 47 47 46 44 44 45 47 47 48 50
22 30 24 20 15 14 16 22 32 55 27 25 20 13 10 15 21 23 25 30 33 34 36 40 43 46 46 46 46 44 43 40 38 38 41 44 44 42 46 48 49 46 46 45
22 29 23 30 14 14 16 19 19 22 20 17 16 18 18 20 21 27 29 30 34 36 38 39 39 40 40 40 38 37 37 38 39 38 38 39 39 38 41 40 36 36 40 42
25 29 30 34 22 21 33 23 21 21 18 22 28 22 21 21 30 34 35 34 36 38 38 36 36 36 37 38 39 38 37 36 35 34 35 36 33 29 31 33 35 40 42 42
26 25 35 35 30 92 26 19 18 21 20 21 23 20 21 28 34 34 34 36 36 36 35 35 37 38 38 37 36 34 34 35 36 34 29 30 33 32 33 33 36 38 38 39
23 26 61 80 35 26 21 20 22 23 24 19 20 19 26 31 34 38 32 33 34 35 36 37 36 35 34 32 32 32 32 31 30 30 32 34 36 34 34 33 36 38 39 38
23 25 36 44 47 49 25 18 15 16 27 18 17 20 26 30 33 42 34 33 35 37 37 36 36 35 34 34 33 30 30 31 32 34 33 33 34 34 33 33 38 37 37 36
37 40 81 49 42 28 18 15 13 30 33 19 18 19 25 29 34 36 33 34 34 34 35 35 34 34 34 32 30 28 29 29 30 30 31 30 31 32 30 35 37 37 36 37
36 47 64 50 72 68 19 17 25 28 22 20 22 24 37 39 37 35 32 32 31 32 32 31 31 31 31 30 28 27 27 27 28 26 27 27 30 31 32 36 37 37 35 36
34 29 39 38 44 28 20 21 20 21 24 24 27 33 35 36 35 32 31 30 30 30 29 31 34 34 33 31 30 31 31 26 25 25 26 28 30 34 34 36 35 35 36 41
26 23 37 34 27 29 22 21 20 20 24 26 30 31 32 33 31 31 29 29 29 29 29 32 32 33 34 33 31 30 30 28 25 26 28 28 32 37 36 35 33 35 40 52
24 28 32 34 27 25 23 23 22 21 25 28 29 29 30 30 30 28 27 28 29 29 30 31 32 32 32 32 31 31 30 30 29 29 29 30 34 35 33 32 32 37 48 57
24 29 32 35 24 28 26 22 21 27 29 29 30 30 29 29 28 28 28 29 29 28 32 32 32 31 32 33 33 35 38 35 36 30 30 32 34 33 31 30 33 46 51 55
Wind_Speed
7 10 11 16 17 10 10 10 9 9 12 13 15 15 15 16 17 17 17 17 16 16 17 17 16 16 16 16 16 15 15 15 14 11 9 8 7 5 4 3 4 5 6 8
7 12 10 10 4 10 11 8 9 7 7 10 14 17 16 15 19 17 17 17 16 15 15 18 19 18 18 18 19 17 16 16 15 12 9 7 6 5 4 4 5 5 6 7
13 11 9 4 6 7 7 9 5 8 9 12 13 18 19 15 16 16 16 15 15 16 16 17 21 21 20 20 21 19 18 17 17 12 10 8 7 7 6 4 4 3 5 6
10 4 6 8 8 5 10 4 9 4 7 6 8 10 10 7 12 16 15 14 15 15 16 19 23 23 23 21 21 19 18 18 17 15 13 12 11 9 7 5 4 3 3 4
2 5 12 13 9 3 4 5 6 6 9 9 11 7 4 8 8 9 10 13 15 17 18 18 23 24 24 23 22 20 19 18 17 17 14 14 12 8 5 5 5 3 1 1
2 2 8 11 2 3 1 2 3 5 8 9 14 5 1 6 7 2 3 2 8 16 18 19 23 24 24 23 22 21 20 19 18 18 16 14 10 8 7 6 5 4 3 2
5 8 4 4 8 3 9 6 5 6 7 8 4 4 4 7 6 6 5 7 5 4 12 14 18 23 23 24 23 21 21 20 19 17 15 13 11 11 10 8 8 6 6 4
11 9 12 8 8 6 11 12 6 6 6 2 4 5 5 6 6 7 10 11 10 6 2 11 18 21 23 24 24 23 23 21 20 17 15 13 12 11 10 8 6 6 5 4
9 9 6 3 3 4 6 6 5 8 4 6 9 5 6 4 8 9 11 12 12 9 5 4 11 18 22 24 26 25 22 21 19 17 15 12 11 10 8 6 5 4 3 4
5 5 4 6 4 4 6 3 4 3 1 8 8 6 3 9 9 8 9 10 10 9 7 4 2 10 19 21 22 23 21 19 17 14 12 11 10 7 6 5 3 2 4 6
12 9 7 4 10 10 6 8 5 3 5 4 8 4 6 9 6 6 9 9 9 9 8 7 6 3 5 13 18 20 18 16 14 12 11 10 9 7 5 2 1 3 5 8
10 6 10 9 5 2 7 10 12 4 6 4 5 6 2 6 6 5 7 9 8 9 9 9 9 7 5 2 6 11 13 12 12 10 10 9 8 6 3 1 3 5 8 10
9 7 5 7 5 5 7 10 0 3 4 10 7 4 6 7 7 7 7 7 8 8 8 8 9 10 9 8 8 10 11 11 11 10 10 8 7 4 3 4 6 8 10 13
3 7 11 7 3 8 4 9 4 5 5 9 13 14 9 10 4 4 4 5 7 7 8 8 10 13 13 14 14 15 15 13 12 11 9 8 7 6 5 6 8 10 13 16
6 7 9 4 5 6 5 8 12 11 16 10 13 13 8 7 8 4 3 5 6 8 9 10 11 15 18 19 19 18 16 14 12 11 10 9 7 6 7 8 11 13 15 16
7 5 6 7 8 9 11 9 11 16 16 17 16 14 7 7 5 4 3 8 9 10 12 13 17 19 19 19 18 17 15 14 12 12 11 9 8 8 9 11 13 14 16 18
10 6 5 6 5 5 8 15 17 17 15 10 13 9 8 5 5 4 7 9 11 13 14 14 17 18 18 17 17 16 15 13 12 11 10 10 10 10 11 13 15 16 19 20
10 12 6 4 4 1 8 0 5 8 11 8 10 4 4 9 9 8 9 12 13 14 15 17 18 18 18 17 16 15 13 12 11 10 10 10 11 12 14 15 17 19 20 20
9 9 3 3 9 11 15 10 6 6 7 12 10 8 11 13 14 10 10 12 14 16 18 18 18 18 17 15 13 13 12 11 10 11 11 11 13 14 16 18 19 19 20 20
9 10 9 4 5 5 2 4 4 3 9 8 7 11 14 14 7 9 13 17 18 19 19 19 18 16 15 13 11 11 11 10 11 10 11 12 14 15 16 17 18 18 18 19
10 8 7 9 8 6 1 10 6 6 3 10 9 10 11 8 5 18 18 18 20 20 20 18 16 14 12 11 10 11 10 11 9 10 11 13 14 15 15 16 17 17 18 18
12 10 6 8 5 10 8 10 7 6 11 13 10 8 13 15 18 18 17 19 21 20 18 16 15 13 11 10 9 10 11 9 10 11 12 13 13 14 15 15 16 16 16 17
10 8 8 9 6 1 14 1 8 8 12 11 11 13 16 18 18 18 17 20 20 19 16 14 14 13 12 11 10 10 9 10 11 11 11 12 13 13 13 14 14 15 16 17
12 8 4 6 11 9 11 6 8 10 11 12 13 16 17 18 19 18 17 19 18 17 15 14 12 12 11 10 10 10 9 10 10 10 11 12 12 13 13 13 13 15 16 16
9 12 12 10 4 8 11 11 11 11 13 14 15 17 17 19 18 19 17 19 18 16 14 12 11 11 9 8 9 9 9 10 10 10 10 11 12 12 13 13 13 12 13 14
9 8 11 7 12 11 14 16 15 15 16 16 18 18 21 22 19 22 20 19 18 16 14 13 12 10 8 7 7 7 8 10 10 10 10 11 12 13 13 14 14 11 9 13
Wind_Direction
209 237 222 210 225 295 301 239 207 218 151 211 231 237 229 183 206 212 207 207 206 204 197 191 191 187 190 178 187 186 184 182 180 181 180 172 170 148 121 85 71 57 45 38
222 236 248 249 261 270 252 231 230 155 137 230 251 242 233 204 205 216 216 211 213 203 200 191 191 194 195 186 194 191 190 188 190 191 193 189 174 167 146 125 92 75 55 41
263 20 77 188 208 237 240 251 222 263 170 236 279 268 245 220 212 203 225 229 214 208 204 194 193 200 197 196 197 196 193 190 194 197 192 192 181 179 179 159 127 81 64 48
257 111 201 203 218 255 261 247 307 189 224 275 191 299 178 198 205 198 215 220 232 216 208 204 195 200 202 202 198 198 195 193 196 199 198 201 199 201 192 164 148 132 77 48
231 222 212 209 214 310 13 323 271 251 258 316 240 257 180 131 189 203 216 232 226 225 214 208 198 203 205 203 198 200 197 195 197 202 214 206 225 216 180 174 172 170 114 56
23 320 231 234 112 275 13 220 230 258 265 264 265 234 261 102 49 134 95 250 230 221 219 205 202 201 204 199 198 197 198 200 201 204 208 212 215 229 195 204 217 227 236 259
186 199 163 233 223 215 220 222 254 231 215 254 48 254 352 74 60 35 36 30 352 237 200 207 204 198 203 197 198 198 200 202 203 203 205 206 213 216 216 216 234 235 250 268
211 191 192 167 237 273 216 233 221 262 284 241 145 248 90 88 89 89 71 63 60 68 172 209 209 207 204 202 198 202 200 204 200 201 200 203 208 209 222 218 243 246 273 288
217 216 117 180 186 247 173 226 297 281 263 282 272 203 182 155 126 108 84 69 61 62 84 200 223 214 212 208 202 204 205 205 198 197 198 196 202 214 211 203 217 243 276 302
223 213 206 135 196 202 275 38 217 219 228 260 261 254 273 161 136 111 71 60 48 47 53 61 223 223 221 214 207 203 210 209 197 190 189 191 192 191 180 189 225 276 303 314
231 233 140 173 205 212 187 220 220 274 237 268 279 279 5 136 131 86 61 40 35 40 33 31 34 5 248 224 211 194 201 212 182 174 181 176 167 157 159 181 290 313 317 315
208 239 227 218 98 310 298 239 215 199 222 240 287 268 192 118 122 49 20 58 60 61 56 51 52 55 67 161 190 162 179 198 145 167 160 153 140 134 112 14 329 320 314 313
161 225 211 205 181 193 224 215 341 316 270 244 239 265 179 153 162 52 47 60 66 58 66 68 73 79 87 101 124 139 144 128 136 144 141 131 111 88 37 351 333 321 315 312
288 229 208 238 16 125 195 197 173 206 228 239 248 253 177 199 162 81 57 75 66 77 80 84 83 85 92 101 110 116 116 127 132 128 116 96 75 47 15 350 335 327 320 317
233 227 233 247 230 223 212 198 190 202 226 231 252 252 257 20 64 77 78 117 106 93 91 94 96 97 100 101 105 109 111 113 113 103 88 71 56 36 13 352 338 329 325 323
213 241 213 236 235 246 250 242 228 222 239 240 251 264 43 87 83 76 100 117 109 104 104 104 104 105 104 103 105 105 101 94 93 83 70 53 35 16 0 344 335 333 332 329
200 222 199 232 210 256 264 244 247 249 230 254 261 268 125 155 98 87 106 113 116 116 115 111 106 104 105 106 104 99 96 89 79 67 52 33 16 3 354 344 339 338 333 330
209 209 189 230 187 257 249 307 286 279 273 212 241 172 97 102 107 94 105 119 122 120 117 112 110 108 104 102 99 95 86 77 65 52 37 24 10 359 351 343 341 337 334 331
229 204 212 174 226 260 277 218 209 220 256 205 217 144 137 132 119 93 106 118 123 121 118 113 111 109 106 101 96 88 76 65 54 40 28 12 2 353 346 344 340 338 334 331
211 235 215 199 228 237 81 122 153 152 249 168 176 157 160 167 219 128 128 124 121 120 120 119 115 110 104 97 93 86 73 57 42 26 13 2 354 349 344 342 338 335 333 330
194 194 210 221 238 250 228 144 165 232 145 149 156 155 165 190 56 132 132 128 127 124 125 123 115 108 102 97 90 79 65 47 27 10 0 355 351 346 344 340 337 334 333 332
190 186 192 224 238 251 161 146 217 95 133 139 140 141 109 120 125 133 132 131 131 127 130 123 114 103 92 85 79 67 51 29 13 0 356 352 350 346 342 340 337 336 337 336
219 209 199 184 208 185 161 2 152 153 141 146 135 131 138 138 139 138 137 137 139 136 130 126 118 107 89 76 69 63 35 16 4 358 357 350 345 349 343 341 340 341 343 345
226 190 216 186 212 200 180 148 169 152 146 138 140 142 146 142 143 143 143 142 139 137 134 130 122 108 95 79 64 51 27 11 7 357 353 347 347 344 344 342 344 345 348 352
216 181 208 218 120 165 193 174 166 147 135 138 139 146 145 146 148 147 145 145 142 138 137 130 120 108 96 78 59 40 23 14 4 353 354 351 345 342 340 343 346 339 343 342
195 206 213 219 204 199 195 183 170 157 156 148 147 143 147 150 148 149 146 143 144 141 134 127 120 115 104 83 55 36 21 10 360 351 358 348 340 340 339 342 340 341 347 341